Home   Weather   Copenhagen   Past weeks
Flag for Denmark

Past Weather in Copenhagen, Denmark — Yesterday and Last 2 Weeks

Now
66 °F

Partly sunny.


Feels Like: 66 °F
Forecast: 68 / 58 °F
Wind: 14 mph from West

Location: Koebenhavn-Kastrup Airport

Current Time: Jul 21, 2019 at 9:30:26 pm

Latest Report: Jul 21, 2019 at 8:20 pm


Visibility: N/A

Pressure: 30.04 "Hg

Humidity: 68%

Dew Point: 55 °F

Location of CopenhagenLocation

Past Weather in Copenhagen — Graph

°F

Copenhagen Temperature Yesterday

Maximum temperature yesterday: 73 °F (at 3:20 pm)
Minimum temperature yesterday: 59 °F (at 2:20 am)
Average temperature yesterday: 67 °F

High & Low Weather Summary for the Past Weeks

 TemperatureHumidityPressure
High75 °F (Jul 12, 4:20 pm)100% (Jul 13, 4:50 am)30.04 "Hg (Jul 13, 4:50 am)
Low54 °F (Jul 7, 12:50 am)41% (Jul 12, 5:50 pm)29.56 "Hg (Jul 6, 8:20 pm)
Average64 °F72%29.89 "Hg
* Reported Jul 6 8:20 pm — Jul 21 8:20 pm, Copenhagen. Weather by CustomWeather, © 2019

Note: Actual official high and low records may vary slightly from our data, if they occured in-between our weather recording intervals... More about our weather records

Advertising

Copenhagen Weather History for the Previous 24 Hours

Scroll right to see more
 ConditionsComfort  
Time TempWeatherWind HumidityBarometerVisibility
8:20 pm
Sun, Jul 21
66 °FPartly sunny.14 mph68%30.04 "HgN/A
7:50 pm66 °FPartly sunny.17 mph68%30.04 "HgN/A
7:20 pm68 °FPartly sunny.18 mph69%30.04 "HgN/A
6:50 pm68 °FPartly sunny.17 mph69%30.01 "HgN/A
6:20 pm68 °FPartly sunny.20 mph69%30.01 "HgN/A
5:50 pm70 °FBroken clouds.17 mph64%30.01 "HgN/A
5:20 pm68 °FPartly sunny.17 mph73%30.01 "HgN/A
4:50 pm70 °FBroken clouds.16 mph69%30.01 "HgN/A
4:20 pm70 °FPartly sunny.16 mph69%30.01 "HgN/A
3:50 pm70 °FPartly sunny.16 mph69%29.98 "HgN/A
2:50 pm70 °FPartly sunny.20 mph69%29.98 "HgN/A
2:20 pm70 °FScattered clouds.21 mph69%29.95 "HgN/A
1:50 pm70 °FBroken clouds.16 mph69%29.95 "HgN/A
1:20 pm68 °FScattered clouds.18 mph73%29.95 "HgN/A
12:50 pm72 °FScattered clouds.18 mph69%29.95 "HgN/A
12:20 pm72 °FPassing clouds.13 mph69%29.95 "HgN/A
11:50 am70 °FPartly sunny.14 mph73%29.95 "HgN/A
11:20 am68 °FPartly sunny.12 mph83%29.95 "HgN/A
10:50 am66 °FPartly sunny.10 mph83%29.92 "HgN/A
10:20 am66 °FPartly sunny.10 mph88%29.92 "HgN/A
9:50 am68 °FBroken clouds.14 mph83%29.92 "HgN/A
9:20 am64 °FSprinkles. Scattered clouds.8 mph94%29.89 "HgN/A
8:50 am64 °FPartly sunny.12 mph88%29.92 "HgN/A
8:20 am64 °FPartly sunny.7 mph88%29.89 "HgN/A
7:50 am64 °FOvercast.6 mph88%29.89 "HgN/A
7:20 am64 °FPartly sunny.8 mph88%29.89 "HgN/A
6:50 am64 °FPassing clouds.8 mph94%29.89 "HgN/A
6:20 am63 °FPassing clouds.7 mph100%29.89 "HgN/A
5:50 am63 °FPassing clouds.7 mph94%29.89 "HgN/A
5:20 am63 °FPartly sunny.5 mph94%29.89 "HgN/A
4:50 am63 °FPassing clouds.5 mph94%29.89 "HgN/A
4:20 am63 °FRain. Passing clouds.6 mph94%29.86 "HgN/A
3:50 am63 °FMostly cloudy.6 mph94%29.89 "HgN/A
3:20 am63 °FOvercast.6 mph94%29.89 "HgN/A
2:50 am63 °FPassing clouds.7 mph94%29.89 "HgN/A
2:20 am63 °FPassing clouds.9 mph94%29.89 "HgN/A
1:50 am63 °FPassing clouds.12 mph94%29.86 "HgN/A
1:20 am63 °FPassing clouds.10 mph94%29.89 "HgN/A
12:50 am63 °FMild.10 mph94%29.89 "HgN/A
12:20 am63 °FPassing clouds.8 mph88%29.86 "HgN/A
11:50 pm
Sat, Jul 20
64 °FPassing clouds.9 mph88%29.86 "HgN/A
11:20 pm66 °FPartly cloudy.17 mph83%29.86 "HgN/A
10:51 pm66 °FClear.15 mph88%29.86 "Hg10 mi
10:20 pm68 °FSprinkles. Passing clouds.22 mph78%29.83 "HgN/A
9:50 pm68 °FPassing clouds.18 mph69%29.86 "HgN/A
9:20 pm68 °FPartly sunny.13 mph64%29.86 "HgN/A
Weather by CustomWeather, © 2019

See weather overview